Regional Weather Roundup
Issued by NWS Burlington, VT

Home | Current Version | Previous Version | Text Only | Print | Product List | Glossary On
Versions: 1 2 3 4 5 6 7 8 9 10 11 12 13 14 15 16 17 18 19 20 21 22 23 24 25 26 27 28 29 30 31 32 33 34 35 36 37 38 39 40 41 42 43 44 45 46 47 48 49 50
000
ASUS41 KBTV 300630
RWRBTV
VERMONT REGIONAL WEATHER ROUNDUP
NATIONAL WEATHER SERVICE BURLINGTON VT
200 AM EDT TUE MAY 30 2017

NOTE: "FAIR" INDICATES FEW OR NO CLOUDS BELOW 12,000 FEET WITH NO
SIGNIFICANT WEATHER AND/OR OBSTRUCTIONS TO VISIBILITY.

* THESE REPORTS ARE NOT UNDER NWS QUALITY CONTROL AND/OR DO NOT
  REPORT WEATHER SUCH AS PRECIPITATION AND FOG.

VTZ001>019-300700-
_____VERMONT_____


CITY           SKY/WX    TMP DP  RH WIND       PRES   REMARKS
BURLINGTON     MOCLDY    57  50  77 S12G23    30.02S
6HR MIN TEMP:  56; 6HR MAX TEMP:  58;

MONTPELIER     CLOUDY    48  47  96 S6        30.11S
6HR MIN TEMP:  47; 6HR MAX TEMP:  49;

MORRISVILLE    CLOUDY    50  46  86 S6        30.06S
6HR MIN TEMP:  49; 6HR MAX TEMP:  50;

ST. JOHNSBURY*   N/A     49  45  86 MISG      30.08R
6HR MIN TEMP:  49; 6HR MAX TEMP:  51;

LYNDONVILLE*   CLOUDY    47  45  93 CALM      30.10S
6HR MIN TEMP:  47; 6HR MAX TEMP:  49;

MIDDLEBURY*    CLOUDY    55  49  83 S6        30.06R
6HR MIN TEMP:  54; 6HR MAX TEMP:  55;

RUTLAND*       CLOUDY    51  46  83 SE10      30.08S
6HR MIN TEMP:  51; 6HR MAX TEMP:  52;

SPRINGFIELD    CLOUDY    48  46  93 CALM      30.12F
6HR MIN TEMP:  48; 6HR MAX TEMP:  50;

HIGHGATE*      MOCLDY    55  50  83 S12G20    29.99R
6HR MIN TEMP:  54; 6HR MAX TEMP:  56;

NEWPORT*       CLOUDY    48  46  91 S12       30.06S
6HR MIN TEMP:  48; 6HR MAX TEMP:  50;

BENNINGTON     CLOUDY    55  48  77 VRB3      30.08R
6HR MIN TEMP:  53; 6HR MAX TEMP:  55;

SUTTON*          N/A     45 N/A N/A MISG        N/A
ISLAND POND*     N/A     48 N/A N/A NE5         N/A
GALLUP MILLS*    N/A     46 N/A N/A MISG        N/A
UNION VILLAGE*   N/A     48 N/A N/A MISG        N/A
MT. MANSFIELD*   N/A     45 N/A N/A S16         N/A

_____LAKE CHAMPLAIN_____


CITY           SKY/WX    TMP DP  RH WIND       PRES   REMARKS
BURTON ISLAND*   N/A     57  52  82 S24         N/A
COLCHESTER RF*   N/A     54  50  87 S28         N/A

$$

NYZ007-026>031-035-052-083-087-300700-
_____NORTHERN NEW YORK_____


CITY           SKY/WX    TMP DP  RH WIND       PRES   REMARKS
PLATTSBURGH    MOCLDY    54  50  86 S8        29.99R
6HR MIN TEMP:  53; 6HR MAX TEMP:  56;

SARANAC LAKE   FOG       39  39 100 CALM      29.98S VSB 3/4
6HR MIN TEMP:  39; 6HR MAX TEMP:  54;

MASSENA        CLEAR     52  51  97 SW5       29.92R
6HR MIN TEMP:  52; 6HR MAX TEMP:  63;

OGDENSBURG*    FAIR      59  56  91 S8        29.90S
6HR MIN TEMP:  58; 6HR MAX TEMP:  64;

POTSDAM*       CLEAR     57  57 100 S8        29.91S
STARK FALLS*     N/A     55 N/A N/A SE18        N/A
WATERTOWN      CLEAR     59  56  89 S8        29.90R
6HR MIN TEMP:  59; 6HR MAX TEMP:  65;

FT DRUM        CLEAR     57  54  90 SE15      29.91R
6HR MIN TEMP:  57; 6HR MAX TEMP:  60;

ALBANY         CLOUDY    56  50  80 S13G20    30.07S
6HR MIN TEMP:  56; 6HR MAX TEMP:  57;


$$
NHZ002-005-011-300700-
_____NEW HAMPSHIRE_____


CITY           SKY/WX    TMP DP  RH WIND       PRES   REMARKS
LEBANON        CLOUDY    50  47  89 CALM      30.11S
6HR MIN TEMP:  50; 6HR MAX TEMP:  51;

KEENE          CLOUDY    49  47  93 CALM      30.12F
6HR MIN TEMP:  49; 6HR MAX TEMP:  50;

MT WASHINGTON  MOCLDY    41  39  93 W20         N/A  WCI  32
6HR MIN TEMP:  32; 6HR MAX TEMP:  40; 6HR PCP:  0.02;

PLYMOUTH       CLOUDY    47  45  92 CALM      30.14S
6HR MIN TEMP:  47; 6HR MAX TEMP:  49;

WHITEFIELD     CLOUDY    47  44  90 CALM      30.09S
6HR MIN TEMP:  46; 6HR MAX TEMP:  51;


$$

_____REGIONAL QUEBEC LOCATIONS_____


CITY           SKY/WX    TMP DP  RH WIND       PRES   REMARKS
MONTREAL       MOCLDY    55  52  88 SE12      29.93S
QUEBEC CITY    LGT RAIN  54  48  82 SE10      30.04R
SHERBROOKE     MOCLDY    46  45  93 SE5       30.04R

_____REGIONAL ONTARIO LOCATIONS_____


CITY           SKY/WX    TMP DP  RH WIND       PRES   REMARKS
OTTAWA         CLOUDY    57  55  94 NW9       29.90

______KEY______
VSB  - VISIBILITY IN MILES
WCI  - WIND CHILL INDEX
HX   - HEAT INDEX
$$
NNNN




USA.gov is the U.S. government's official web portal to all federal, state and local government web resources and services.